Wind_Speed
25 24 25 27 29 32 21 3 2 9 4 2 0 1 5 8 7 7 6 3 6 6 5 6 4 9 1 9 5 6 1 4 3 5 4 6 6 5 6 4 5 3 3 6
24 23 24 26 28 30 12 3 2 4 6 3 2 1 6 2 3 6 2 4 3 9 5 5 2 7 4 15 7 8 4 1 3 2 1 2 5 8 7 5 1 5 3 6
24 21 23 25 27 29 7 2 2 3 2 2 3 3 2 4 7 5 5 2 14 6 4 6 5 7 6 4 3 11 4 3 4 5 3 3 5 11 16 11 4 3 7 16
22 21 22 25 28 26 7 2 2 3 3 3 4 2 3 3 3 4 5 12 11 6 4 11 7 7 5 5 5 4 4 2 2 4 6 5 6 8 12 14 17 9 3 12
20 21 22 23 26 23 4 3 3 2 4 5 2 3 4 3 4 7 4 9 7 12 3 4 6 7 3 3 1 3 2 1 2 4 8 8 10 12 12 14 15 20 17 23
19 19 19 21 22 23 4 4 4 2 5 3 2 3 4 3 4 6 8 11 10 13 10 12 6 5 5 8 6 3 4 2 1 4 3 5 5 14 14 9 11 17 16 21
18 18 17 18 18 19 13 4 3 2 3 2 1 4 6 2 2 2 5 7 5 2 3 5 7 9 10 6 6 6 5 2 1 4 3 2 6 4 6 9 8 10 12 15
17 16 16 15 16 16 18 8 4 2 3 4 4 5 3 3 4 6 6 6 3 5 5 3 3 4 4 2 2 5 4 3 1 1 2 6 0 3 5 4 4 6 12 12
15 16 15 14 15 15 17 5 5 3 3 3 4 3 2 1 3 2 3 5 5 5 2 2 3 3 3 3 2 2 3 4 2 1 2 4 1 3 6 5 3 6 4 6
15 15 15 14 13 12 14 5 5 3 3 3 4 2 2 2 2 2 3 2 3 3 1 1 1 2 3 4 6 5 3 3 5 4 2 7 7 4 4 1 3 3 4 5
14 14 15 14 12 11 11 14 3 1 2 6 3 4 2 3 1 3 3 3 1 2 1 2 2 2 3 3 6 6 7 5 4 5 4 7 4 2 1 4 4 4 6 5
14 14 15 15 13 10 8 7 5 8 3 4 8 19 18 6 1 3 2 1 2 3 2 0 2 2 2 3 3 3 4 6 5 7 6 6 5 5 5 5 5 3 3 4
16 14 15 14 12 10 7 12 11 8 2 4 3 4 1 5 4 2 3 1 3 2 2 2 2 4 1 2 4 6 4 6 3 2 6 11 8 6 2 3 1 1 1 1
17 16 15 14 12 10 8 10 10 7 2 2 2 1 1 1 3 4 2 5 4 4 2 2 2 2 1 3 3 2 5 6 6 5 8 8 1 1 1 1 2 2 2 1
19 17 14 13 12 10 10 14 19 17 3 2 3 11 2 1 1 3 3 5 4 2 3 3 4 2 2 3 1 4 3 6 4 5 6 3 2 1 0 3 1 1 2 2
19 18 17 14 11 7 3 2 5 15 14 2 2 1 3 3 3 3 3 3 3 3 3 2 3 4 3 2 3 5 5 4 7 5 4 3 4 3 2 4 3 2 4 4
21 20 18 15 10 10 5 1 2 10 16 2 2 3 0 2 1 1 1 3 2 2 2 4 2 2 2 2 3 4 4 3 2 1 0 2 4 4 4 6 5 6 6 7
21 20 5 10 10 7 8 14 15 9 4 2 2 2 2 5 2 1 2 2 2 3 2 2 3 2 2 3 5 6 4 3 6 6 5 1 6 6 5 4 5 6 6 6
10 7 13 12 3 4 3 3 7 16 2 2 1 1 2 2 2 1 2 2 2 2 3 2 1 1 3 2 4 6 6 4 5 3 2 3 3 5 6 5 6 6 4 6
4 2 3 2 3 4 4 5 3 2 2 3 2 2 2 3 2 1 0 1 1 1 0 2 2 2 3 8 6 5 7 7 7 4 4 2 2 6 7 7 5 5 6 7
1 2 1 4 4 6 2 3 3 3 2 3 2 3 2 1 2 1 1 1 1 1 1 1 1 1 4 9 8 7 7 7 7 7 6 4 5 5 6 6 6 6 9 8
5 11 9 3 1 0 2 2 0 2 3 2 2 1 1 2 1 1 0 1 0 1 0 0 1 1 7 8 10 11 9 8 7 5 5 6 4 5 7 7 8 10 14 16
2 2 2 2 1 2 3 4 2 2 2 1 1 1 1 1 0 0 1 1 1 1 0 1 2 4 7 9 9 10 9 8 6 6 7 4 5 10 10 8 13 17 17 17
1 2 3 3 3 3 2 2 2 0 2 1 0 1 0 0 0 0 1 1 0 1 1 2 2 7 9 8 8 8 10 9 7 7 6 4 5 5 11 13 15 17 16 17
1 1 3 3 1 2 1 1 1 1 0 1 1 1 0 1 0 1 0 1 0 0 1 1 3 7 7 8 8 8 8 7 6 5 5 3 5 6 8 14 16 16 18 20
0 2 2 1 0 1 0 0 1 1 1 1 1 1 1 2 1 1 3 1 2 2 1 2 3 5 6 6 7 6 7 6 6 7 5 1 4 5 8 13 15 17 20 20
2 2 1 1 1 0 1 1 1 2 1 1 0 2 3 2 1 2 1 3 2 2 2 2 3 5 6 7 7 7 9 8 8 9 8 2 4 11 12 6 7 16 16 20
Wind_Direction
350 348 346 347 348 345 346 345 351 358 9 56 165 324 331 328 2 318 271 301 97 149 124 144 129 182 188 184 157 155 161 104 140 201 202 189 167 186 179 133 279 243 157 267
352 352 349 349 351 350 343 346 302 29 353 50 319 351 312 329 2 266 106 192 106 140 110 138 168 125 308 172 173 155 162 354 106 125 319 168 210 209 213 220 74 215 123 258
354 356 352 350 353 351 355 318 334 326 48 234 333 310 296 334 285 275 324 60 117 93 91 64 126 108 38 82 111 131 105 173 166 174 196 148 206 197 215 200 186 194 225 274
356 356 355 353 357 356 0 356 343 18 318 277 215 338 316 320 328 324 313 99 122 133 126 127 128 100 92 45 59 74 99 182 272 275 259 259 212 210 211 209 225 227 166 256
359 3 5 359 3 6 30 356 334 340 294 291 271 225 8 335 15 353 18 140 135 75 48 169 140 129 124 158 36 104 64 207 334 278 248 239 248 234 225 229 229 238 255 269
351 352 356 357 5 12 335 351 286 271 289 299 49 39 272 326 340 17 8 98 76 65 42 67 86 126 158 152 138 114 113 138 261 268 320 315 291 238 220 231 227 234 246 255
348 355 354 352 0 4 356 329 296 316 310 305 356 348 117 84 276 292 44 62 81 91 44 59 37 45 51 103 144 131 139 187 235 267 341 239 244 166 175 207 254 227 247 264
343 351 354 354 358 357 357 330 334 310 295 315 308 351 78 125 31 25 47 28 94 99 45 68 60 26 33 3 74 139 155 192 244 219 254 288 79 213 188 169 297 247 236 256
338 344 347 346 356 349 350 332 345 295 307 243 285 316 330 96 75 41 65 44 33 57 75 80 164 177 160 174 171 94 137 78 195 263 276 252 301 247 141 112 279 214 204 224
332 336 340 340 350 348 343 287 336 266 269 268 330 303 258 128 110 149 106 98 12 35 98 131 196 279 121 160 180 178 167 197 222 237 280 285 262 166 112 257 242 201 207 202
324 328 329 330 336 336 337 310 273 328 277 282 264 310 352 1 51 140 195 67 349 57 148 154 215 235 268 155 173 171 175 181 198 201 222 265 204 103 148 239 261 240 207 214
319 320 319 320 320 310 314 288 308 320 234 272 282 276 272 273 185 124 148 187 151 160 134 43 352 281 288 208 225 151 199 187 182 186 215 239 241 256 267 266 232 256 225 184
313 314 311 315 315 301 276 284 301 302 255 262 276 265 162 196 210 184 130 272 164 181 145 134 243 259 180 257 239 191 241 183 226 135 259 247 273 287 274 358 19 20 3 206
311 310 305 303 305 290 278 266 269 306 270 283 302 152 185 204 229 219 193 147 104 103 111 156 234 259 203 254 263 215 206 147 205 258 289 294 285 126 244 110 60 63 11 280
312 308 306 298 293 274 269 270 263 244 270 312 295 315 221 260 205 182 182 161 137 147 172 198 227 235 274 243 302 246 208 196 172 220 242 214 242 189 129 155 200 165 147 68
318 315 301 291 277 249 253 276 227 216 203 267 280 246 186 179 184 177 194 201 185 176 165 191 230 231 215 245 242 252 238 231 202 221 222 186 157 144 137 132 121 121 111 112
322 316 305 272 237 201 209 299 23 178 190 250 279 289 112 164 193 216 177 186 199 206 196 219 222 292 225 229 250 290 304 351 17 324 7 242 185 226 120 114 111 105 85 89
329 335 290 196 185 212 259 265 239 224 252 265 261 268 316 178 199 232 169 232 170 187 252 229 187 167 217 257 256 305 340 14 45 15 14 103 115 103 104 109 114 107 104 102
333 39 113 121 156 196 234 211 173 190 269 284 197 219 261 161 241 197 181 230 193 157 205 257 30 170 209 284 327 341 352 346 316 358 39 147 152 163 159 148 148 135 141 124
258 240 255 209 197 196 204 157 140 174 215 221 247 212 266 164 224 209 226 101 229 232 239 346 203 251 67 19 343 342 329 318 318 298 296 254 210 190 185 188 167 158 157 141
243 252 252 332 209 204 203 196 189 183 225 199 224 211 255 9 246 275 210 200 227 256 109 223 197 96 352 342 339 334 325 315 302 273 266 268 235 190 176 172 166 149 147 146
298 296 294 284 262 224 201 205 88 173 224 153 195 181 236 291 329 212 231 220 273 300 340 331 68 61 341 338 336 332 327 328 326 345 324 305 256 166 154 146 141 144 138 140
318 204 281 196 257 182 209 187 203 206 193 234 355 228 204 285 57 39 88 244 189 285 122 81 83 345 341 338 341 337 338 349 355 347 338 316 132 134 137 135 143 141 143 149
256 223 227 200 175 241 199 194 152 241 88 115 132 304 258 301 42 186 285 90 79 106 84 251 7 343 333 335 338 341 344 349 351 352 353 36 108 118 136 146 150 148 148 149
277 268 241 210 147 57 76 23 102 22 310 37 44 353 56 310 311 136 311 288 342 273 101 68 319 323 322 328 336 337 343 342 342 346 5 39 102 121 126 148 153 152 145 144
207 245 273 231 183 198 150 81 98 2 24 53 59 19 350 258 166 140 215 184 208 157 325 268 300 314 320 325 330 334 341 339 345 351 355 68 143 138 128 140 146 152 153 148
231 254 251 308 318 81 110 124 78 339 68 167 160 212 231 360 174 250 36 175 142 224 275 269 314 323 325 335 341 348 348 353 357 352 359 14 117 136 127 121 140 152 154 153
Height
783 779 775 768 762 755 747 744 742 738 737 740 740 738 726 721 723 727 715 708 702 713 715 724 726 733 727 729 731 741 739 746 765 763 755 755 764 772 772 806 801 802 805 769
783 778 774 768 762 756 751 748 746 741 739 747 742 732 730 724 729 719 707 703 698 706 711 727 720 726 720 725 730 739 741 757 759 756 760 757 760 762 759 764 770 805 806 759
782 777 774 769 762 757 753 752 746 747 744 743 739 732 730 726 724 713 704 700 702 711 715 721 726 727 727 727 728 732 737 743 763 776 761 752 762 752 754 758 782 777 773 734
781 777 773 769 763 757 754 754 749 748 748 740 738 740 732 728 720 712 705 706 709 713 722 723 725 730 735 736 734 737 745 759 751 751 749 747 748 746 749 757 751 754 739 736
782 777 773 770 765 758 756 755 753 751 742 735 731 730 731 731 720 715 705 710 709 710 718 715 722 726 734 738 741 742 748 756 753 750 743 744 748 740 740 740 739 740 739 731
781 777 773 771 766 764 760 758 756 754 742 731 732 726 735 728 723 718 714 714 717 721 723 718 720 724 728 734 744 751 755 759 753 780 740 743 751 730 729 730 727 724 732 715
781 777 772 771 768 767 765 760 758 752 741 736 732 724 724 727 723 721 716 717 721 727 724 724 728 733 737 737 739 743 753 756 749 768 752 758 722 713 715 719 714 713 711 706
781 776 773 770 767 766 765 762 760 756 749 741 728 723 725 727 723 722 723 723 725 726 730 739 742 748 745 742 741 745 745 751 755 768 763 732 717 715 716 717 712 704 707 702
780 776 773 770 767 766 764 763 761 759 754 744 741 728 724 729 726 728 729 729 728 730 737 737 738 738 739 748 746 747 748 752 756 751 751 741 708 701 703 710 713 701 701 702
777 775 772 769 766 766 765 762 761 760 754 743 738 730 730 722 725 733 733 733 734 734 739 740 738 733 725 749 749 753 752 753 752 760 751 738 712 704 704 715 713 698 700 699
774 772 770 767 764 763 763 760 758 759 755 745 738 733 728 728 729 733 736 740 740 739 741 741 738 742 724 730 738 745 741 746 744 749 759 751 705 707 710 702 697 693 697 696
771 768 766 764 761 761 761 759 757 756 755 746 738 732 730 730 728 731 733 734 737 737 742 745 742 737 732 730 729 735 734 735 740 742 733 709 702 701 697 697 696 692 692 695
767 765 762 760 757 757 758 756 756 754 750 740 735 728 727 727 727 727 733 735 732 735 734 740 741 744 735 732 730 726 720 721 726 722 706 705 701 698 697 697 696 697 696 695
762 759 758 755 754 754 754 753 754 754 751 743 728 726 726 726 726 726 727 728 731 733 736 738 740 734 729 725 721 717 713 715 716 716 705 700 695 696 696 697 698 698 697 697
756 753 751 750 750 751 751 750 748 750 753 741 733 728 725 725 726 726 727 728 730 733 735 734 733 730 726 725 723 721 708 707 713 712 699 698 696 696 696 698 699 699 698 698
750 747 744 744 745 747 748 746 742 744 748 746 735 726 725 725 725 725 726 727 728 729 729 729 725 720 721 719 709 701 700 699 696 697 692 693 695 697 698 699 701 701 700 699
743 740 737 738 741 743 744 741 741 741 746 743 734 727 724 723 725 725 725 725 725 725 725 723 720 718 715 714 719 698 698 693 692 692 691 693 695 696 699 700 702 703 703 703
738 732 728 732 737 742 740 736 739 742 742 740 734 727 726 724 722 723 724 723 724 723 720 715 715 717 715 710 708 703 699 696 697 697 694 693 697 700 702 703 705 706 707 707
737 735 733 735 737 738 735 735 735 740 743 734 731 729 727 723 719 720 721 721 717 719 719 712 712 709 709 709 707 706 705 702 699 698 697 698 698 702 704 706 708 709 711 711
736 736 735 733 733 733 734 734 736 740 736 734 726 722 721 722 717 718 720 720 722 719 716 717 713 708 710 715 715 713 709 706 702 699 697 698 701 702 704 705 706 708 710 712
735 733 731 730 730 730 730 727 728 728 726 723 721 720 719 720 720 717 720 722 725 713 719 716 715 709 718 720 717 713 709 706 702 699 696 695 695 697 700 703 705 706 709 712
736 737 734 730 729 728 726 724 727 725 721 720 720 720 720 721 720 719 721 722 724 710 720 715 710 722 725 723 718 713 709 704 701 698 696 694 692 694 697 700 703 706 710 714
734 733 733 728 728 723 720 718 720 720 722 725 725 722 722 720 721 723 722 717 714 722 716 713 720 729 728 725 721 715 711 706 703 700 697 694 693 695 696 700 704 707 710 714
733 731 724 723 721 720 718 719 720 726 726 724 724 724 722 721 721 722 717 721 723 715 715 721 731 733 731 727 724 718 713 710 706 702 699 697 697 698 700 702 705 707 711 716
733 732 721 719 723 725 725 725 724 725 725 724 724 726 725 723 721 722 722 717 714 716 717 735 739 736 733 729 725 722 717 713 709 706 703 702 701 702 703 704 706 709 713 716
734 732 726 725 724 724 725 726 725 726 725 726 727 724 722 719 720 719 714 716 713 731 740 742 740 737 734 731 726 722 718 715 711 708 706 705 704 704 705 707 709 711 713 716
731 728 728 728 726 723 725 725 726 728 726 724 726 721 719 731 721 718 722 728 732 742 743 741 738 737 733 729 725 722 719 715 713 711 709 707 705 705 707 710 713 714 717 718